星链-36559(STARLINK-36559)

导读

STARLINK-36559是美国SpaceX星链星座卫星,于2026年1月22日发射入轨。星链星座旨在构建全球卫星互联网,为偏远地区、海上及航空等场景提供宽带网络服务。该卫星延续星链设计,部署于近地轨道,通过大规模组网实现信号覆盖,进一步扩充星链星座的服务规模与覆盖能力。

基本信息
目录编号:
67555
目录名称:
STARLINK-36559
国际标识:
2026-014Z
轨道中心:
EARTH
卫星名称:
星链-36559
卫星全名:
星链-36559(STARLINK-36559)
卫星状态:
在轨 (已飞行226 天)
发射日期:
2026-01-22 UTC
国别 :
美国 (US)
星等 :
--
轨道信息
数据来源 国际轨道数据
星历时间: 2026-09-05T14:15:49+0800
9小时前
查看轨道信息
半长轴: 6843.735km
偏心率: 0.0001696
轨道倾角: 97.280°
近地点辐角 87.627°
升交点赤经 133.853°
平近点角 272.516°
近地点: 464.437km
远地点: 466.759km
周期: 93.907分钟
每日圈数: 15.334269
详细信息
固有亮度:
5
最大亮度:
2.5
卫星平台:
Starlink V1.0
覆盖范围:
全球
运营商:
太空探索技术公司
运营商所在国:
美国
制造商(研发单位):
太空探索技术公司
制造商所在国:
美国
使用方式:
暂无
卫星简介
Starlink 计划是 SpaceX 推出的全球卫星互联网项目,通过发射低轨道卫星,为全球尤其是偏远地区提供高速、低延迟的互联网服务。自 2019 年起,Starlink 已部署数千颗卫星,旨在缩小全球数字鸿沟,推动互联网普及。该项目还为军事、航空等行业提供通信支持,带来广泛经济效益。
2D轨道图
3D轨道图
轨道高度分析图
轨道倾角分析图
轨道综合分析图
查看轨道综合分析图
交会数据列表
事件ID 空间交会对象 最接近时刻(TCA) 交会距离 交会风险概率(CRP) 交会风险指数(CRI) 操作
CDM_260906-123806-190306-755521
OBJECT K (61903)
2026-09-06T
12:38:08+0000
1.269 km
极远距离
1.198012E-5 中风险 0.57
CDM_260830-060405-417206-755521
2026-08-30T
06:04:56+0000
1.701 km
极远距离
4.473046E-6 低风险 0.48
CDM_260906-141206-190306-755521
OBJECT K (61903)
2026-09-06T
14:12:07+0000
2.508 km
极远距离
1.764572E-6 低风险 0.4
CDM_260905-210405-479206-755521
2026-09-05T
21:04:54+0000
2.870 km
极远距离
1.411914E-6 低风险 0.38
CDM_260831-100806-460606-755521
2026-08-31T
10:08:23+0000
2.807 km
极远距离
1.33969E-6 低风险 0.38
CDM_260905-065005-196906-755521
2026-09-05T
06:50:20+0000
2.925 km
极远距离
1.327187E-6 低风险 0.37
CDM_260903-095904-279406-755521
DSAT (42794)
2026-09-03T
09:59:04+0000
2.748 km
极远距离
1.266674E-6 低风险 0.37
CDM_260908-034605-111506-755521
2026-09-08T
03:46:22+0000
2.634 km
极远距离
1.113407E-6 低风险 0.36
CDM_260907-062405-937106-755521
2026-09-07T
06:24:03+0000
2.944 km
极远距离
9.443141E-7 极低风险 0.35